Regional Weather Roundup
Issued by NWS

Home | Current Version | Previous Version | Graphics & Text | Print | Product List | Glossary On
Versions: 1 2 3 4 5 6 7 8 9 10 11 12 13 14 15 16 17 18 19 20 21 22 23 24 25 26 27 28 29 30 31 32 33 34 35 36 37 38 39 40 41 42 43 44 45 46 47 48 49 50
000
ASUS44 KMEG 060410
RWRTN
TENNESSEE HOURLY STATE WEATHER ROUNDUP
NATIONAL WEATHER SERVICE MEMPHIS TN
1100 PM CDT THU MAY 05 2016

TNZ002-004-019-021-049-052-054-088>092-060500-
WEST TENNESSEE

CITY           SKY/WX    TMP DP  RH WIND       PRES   REMARKS
MEMPHIS INTL   CLEAR     60  43  53 NE9       30.02R
NWS MEMPHIS      N/A     57 N/A N/A MISG        N/A
JACKSON        CLEAR     50  43  77 CALM      30.02R
DYERSBURG      CLEAR     52  43  71 CALM      30.03R
UNION CITY     CLEAR     48  46  93 CALM      30.01S
LEXINGTON      CLEAR     45  43  93 CALM      30.00S
$$

TNZ008-025-027-028-033-062-065-066-060500-
NORTH MIDDLE TENNESSEE

CITY           SKY/WX    TMP DP  RH WIND       PRES   REMARKS
NASHVILLE      CLEAR     52  43  71 NW6       29.98S
CLARKSVILLE    CLEAR     48  43  82 W5        29.99S
SMYRNA         CLEAR     49  44  83 NW6       29.99R
COOKEVILLE     MOCLDY    52  45  76 CALM      29.94S
CROSSVILLE     CLOUDY    47  41  80 NW9       29.93S
$$

TNZ061-075-076-078-094-096-097-060500-
SOUTH MIDDLE TENNESSEE

CITY           SKY/WX    TMP DP  RH WIND       PRES   REMARKS
TULLAHOMA      PTCLDY    46  43  87 N6        29.97R
WINCHESTER     MOCLDY    48  43  81 NW5       29.96S
MCMINNVILLE    CLOUDY    52  43  71 NW6       29.96S
COLUMBIA       CLEAR     52  52 100 CALM      29.98R
SHELBYVILLE    PTCLDY    48  45  87 NW7       29.98S
$$

TNZ017-018-042-046-047-060500-
NORTHEAST TENNESSEE

CITY           SKY/WX    TMP DP  RH WIND       PRES   REMARKS
TRI CITIES     LGT RAIN  47  43  86 W7        29.83S
$$

TNZ012-013-036-069-073-074-060500-
CENTRAL EAST TENNESSEE

CITY           SKY/WX    TMP DP  RH WIND       PRES   REMARKS
KNOXVILLE      CLOUDY    49  41  74 S7        29.90S
OAK RIDGE      PTCLDY    48  41  76 CALM      29.92R
GATLINBURG     CLOUDY    48  37  66 W5        29.89F
MORRISTOWN     CLOUDY    50  41  71 W5        29.87S
$$

TNZ083-085-099-060500-
SOUTHEAST TENNESSEE

CITY           SKY/WX    TMP DP  RH WIND       PRES   REMARKS
CHATTANOOGA    PTCLDY    49  41  74 W3        29.94S
$$

SKY/WX REPORTED AS FAIR MEANS FEW OR NO CLOUDS BELOW
12 THOUSAND FEET.




USA.gov is the U.S. government's official web portal to all federal, state and local government web resources and services.